Location: Unspecified
(0.0000°N, 0.0000°E)
Time: 16:20:35
(UTC-05:00)

Okean 3 - Visible Passes

Search period start: 18 June 2018 00:00
Search period end: 28 June 2018 00:00
Orbit: 576 x 603 km, 82.5° (Epoch: 17 June)

Date Brightness Start Highest point End Pass type
(mag) Time Alt. Az. Time Alt. Az. Time Alt. Az.
18 Jun 6.7 22:07:48 10° ENE 22:07:51 10° ENE 22:07:51 10° ENE visible
18 Jun 5.0 23:42:21 10° NW 23:44:17 20° WNW 23:44:17 20° WNW visible
19 Jun 6.5 22:13:57 10° NE 22:14:34 13° NE 22:14:34 13° NE visible
20 Jun 6.5 22:21:11 10° NNE 22:21:26 11° NNE 22:21:26 11° NNE visible
